Location: Cowley
(49.5667°N, 114.0667°W)
Time: 16:39:43
(UTC+00:00)

N. Korean satellite - Visible Passes

Search period start: 27 November 2021 00:00
Search period end: 07 December 2021 00:00
Orbit: 447 x 495 km, 97.3° (Epoch: 26 November)

Date Brightness Start Highest point End Pass type
(mag) Time Alt. Az. Time Alt. Az. Time Alt. Az.
27 Nov 6.7 12:53:47 10° NNE 12:57:13 69° ESE 13:00:35 10° S visible
28 Nov 9.8 01:06:32 10° SW 01:08:35 15° W 01:10:37 10° NW visible
28 Nov 8.3 12:25:36 10° NNE 12:28:40 30° E 12:31:41 10° SSE visible
28 Nov 7.7 13:59:06 10° NNW 14:01:43 20° WNW 14:04:18 10° WSW visible
29 Nov 8.9 00:36:46 10° SSW 00:39:55 28° W 00:43:03 10° NW visible
29 Nov 9.6 11:57:58 10° NE 12:00:00 15° E 12:02:00 10° SE visible
29 Nov 6.8 13:30:11 10° N 13:33:25 41° WNW 13:36:37 10° SW visible
30 Nov 6.3 13:01:35 10° NNE 13:05:00 87° ESE 13:08:23 10° SSW visible
01 Dec 10.0 01:15:05 10° WSW 01:16:28 12° W 01:17:50 10° WNW visible
01 Dec 7.9 12:33:16 10° NNE 12:36:28 37° E 12:39:38 10° SSE visible
01 Dec 7.9 14:07:07 10° NNW 14:09:25 17° WNW 14:11:42 10° WSW visible
02 Dec 9.2 00:44:50 10° SSW 00:47:45 23° W 00:50:38 10° NW visible
02 Dec 9.3 12:05:24 10° NE 12:07:49 18° E 12:10:12 10° SE visible
02 Dec 7.0 13:38:01 10° N 13:41:08 33° WNW 13:44:12 10° SW visible
03 Dec 7.6 00:15:41 10° S 00:19:08 49° W 00:22:34 10° NNW visible
03 Dec 6.2 13:09:19 10° N 13:12:43 75° WNW 13:16:06 10° SSW visible
04 Dec 7.4 12:40:53 10° NNE 12:44:12 46° E 12:47:28 10° S visible
04 Dec 8.1 14:15:07 10° NNW 14:17:02 14° WNW 14:18:57 10° W visible
05 Dec 9.6 00:52:54 10° SW 00:55:30 19° W 00:58:05 10° NW visible
05 Dec 8.9 12:12:51 10° NE 12:15:32 22° E 12:18:13 10° SSE visible
05 Dec 7.3 13:45:50 10° N 13:48:45 27° WNW 13:51:40 10° SW visible
06 Dec 8.1 00:23:31 10° S 00:26:50 39° W 00:30:08 10° NNW visible
06 Dec 9.9 11:45:59 10° ENE 11:46:46 11° E 11:47:33 10° ESE visible
06 Dec 6.3 13:16:59 10° N 13:20:21 59° WNW 13:23:41 10° SSW visible
